map of BNA home
BNA - Airport
Location
City:  Nashville, Tennessee, United States
Name:Nashville International Airport
ICAO:KBNA
IATA:BNA
FAA LID:BNA

Details
Type:Airport (Part 139 Class I)
Use:Public/Civil, International (customs landing rights)
Latitude:3607'28"N (36.124472)
Longitude:8640'41"W (-86.678166)
Datum:WGS 1984
Elevation:599 ft (183 m)
Variation:3.92W (WMM2015 magnetic declination)
-0.08 annual change
Runways:4
Longest:11030 × 150 ft (3362 × 45.5 m), paved

Time
Time Zone:UTC-6 (DST-5)
Local Time:

Weather
METAR:KBNA 190153Z 19003KT 10SM CLR 04/M03 A3012 RMK AO2 SLP203 T00391028
TAF:KBNA 182320Z 1900/1924 00000KT P6SM SCT250
FM191600 18007KT P6SM BKN100

Related Locations
Nearby:
Farthest:YAUG: 11205 mi / 18032 km
Augusta [Augusta Airport], WA, AU

Find:

   beyond  
but within

Other Information
Maps:
Delays:
NOTAMs:
Links:
Sources:

  
  • flag of United States
  • flag of Tennessee
  

Airport Diagram

Airport diagram for BNA

Airport diagram PDF

Sectional Chart

Flight Planning
at skyvector.com

Satellite Image

Google Maps Satellite view

 

Copyright © 2004-2018 Karl L. Swartz. All rights reserved.
The Great Circle Mapper name and logo are trademarks of the Great Circle Mapper.
All other trademarks mentioned herein belong to their respective owners.
Please see credits for attibutions and further copyright information.

  Follow gcmap on Facebook Follow gcmap on Twitter Follow gcmap on Google+ GCmap on LinkedIn

hCard Microformat

Geo Microformat